Погода в Остерхауте

Нидерланды     51°39′19″N   4°50′56″E
темп.,
°C
ветер,
м/с
пор.,
м/с
влажн.,
%
обл.,
%
осадки,
мм/ч
давл.,
гПа
погр.,
м
8 марта, пн
пн801:00+1ссз128892 0.0 102422
04:00+2сз239394 0.0 102360
07:00+1зсз119194 0.0 102322
10:00+5зсз237480 0.0 1024499
13:00+7зсз226273 0.0 1024960
16:00+7зсз2363100 0.1 1023789
19:00+4з3373100 0.1 102291
22:00+4юз3674100 0.0 1022218
9 марта, вт
вт901:00+4юз5988100 0.3 1020457
04:00+4юз61189100 1.3 1019466
07:00+5з51092100 3.4 1018550
10:00+6з5885100 0.3 1018538
13:00+8зсз677896 0.3 1018734
16:00+7зсз5781100 0.0 1018584
19:00+4з359287 0.0 1018169
22:00+3зюз239423 0.0 101941
10 марта, ср
ср1001:00+3юз379427 0.0 1018148
04:00+2юз499649 0.0 1018237
07:00+3ююз4119575 0.0 1018315
10:00+7ююз71374100 0.0 1017745
13:00+9юз91462100 0.0 10161117
16:00+9ююз81462100 0.0 10131172
19:00+8ююз81568100 0.3 1010981
22:00+6ююз111986100 2.0 1008836
11 марта, чт
чт1101:00+8ююз112086100 2.1 1004772
04:00+10ююз122185100 0.0 10001013
07:00+11юз102088100 1.3 9981425
10:00+11зюз14256367 1.8 9982160
13:00+12зюз16245769 2.1 9992224
16:00+10зюз13196091 0.3 10001922
19:00+8зюз10186896 0.8 10021317
22:00+7зюз101773100 1.3 10041211
12 марта, пт
пт1201:00+5зюз8157659 1.4 1007986
04:00+5зюз715790 0.0 1007767
07:00+4юз614843 0.0 1008659
10:00+8зюз10157182 0.0 10081416
13:00+8юз11167191 0.3 10071506
16:00+8юз101773100 0.3 10041468
19:00+7зюз91584100 3.4 10031020
22:00+6зюз81582100 0.4 1004968